Regional Weather Roundup
Issued by NWS

Home | Current Version | Previous Version | Text Only | Print | Product List | Glossary Off
Versions: 1 2 3 4 5 6 7 8 9 10 11 12 13 14 15 16 17 18 19 20 21 22 23 24 25 26 27 28 29 30 31 32 33 34 35 36 37 38 39 40 41 42 43 44 45 46 47 48 49 50

000
ASUS45 KTFX 231210
RWRMT
MONTANA REGIONAL WEATHER ROUNDUP
NATIONAL WEATHER SERVICE GREAT FALLS MT
500 AM MST TUE JAN 23 2018

NOTE: "FAIR" INDICATES FEW OR NO CLOUDS BELOW 12000 FEET WITH NO
SIGNIFICANT WEATHER AND/OR OBSTRUCTIONS TO VISIBILITY.

MTZ001>007-043-231300-
WEST OF THE DIVIDE

CITY           SKY/WX    TMP DP  RH WIND       PRES   REMARKS
KALISPELL      FAIR      27  24  89 CALM      30.22S
MISSOULA       CLOUDY    22  19  89 CALM      30.27S
BUTTE          FAIR      12   7  80 N6        30.19S WCI   3
MULLAN PASS    CLOUDY    20  18  92 VRB7      30.13S WCI  11
ANACONDA         N/A     19  12  73 SE6       30.21S WCI  11
DEER LODGE       N/A     19  16  86 CALM      30.23S
EUREKA           N/A     30  21  69 MISG      30.21S
HAMILTON         N/A     28  21  74 S6        30.26S WCI  22
RONAN            N/A     25  21  86 SE7       30.26S WCI  17
$$

MTZ008-052>055-231300-
SOUTHWEST MONTANA

CITY           SKY/WX    TMP DP  RH WIND       PRES   REMARKS
BOZEMAN        CLOUDY    17  12  80 CALM      30.23R
DILLON         FAIR      14  12  92 SW15      30.21R WCI  -1
ENNIS          CLOUDY    25  14  63 S10       30.26S WCI  15
W YELLOWSTONE  MOCLDY    -2  -6  84 CALM      30.20R
THREE FORKS      N/A     21  16  81 CALM      30.18R
$$

MTZ009-010-012-014-046-048-049-054-231300-
EAST SLOPES AND CENTRAL MONTANA

CITY           SKY/WX    TMP DP  RH WIND       PRES   REMARKS
CUT BANK       FAIR      27  18  69 W20       30.07S WCI  13
GREAT FALLS    FAIR      25  16  68 SW14      30.13R WCI  13
MALMSTROM AFB  FAIR      28  19  68 SW15      30.14R WCI  16
HELENA           N/A    N/A N/A N/A MISG      30.19R
CHOTEAU          N/A     28  16  59 W10       30.11S WCI  19
ULM            FAIR      28  17  63 SW10      30.15R WCI  19
WHITE SULPHUR    N/A     27  12  54 NW14G20   30.14R WCI  15
$$

MTZ011-013-016-021-045-047-050-051-231300-
NORTH CENTRAL MONTANA

CITY           SKY/WX    TMP DP  RH WIND       PRES   REMARKS
HAVRE          FAIR      23  17  78 W13       30.11R WCI  11
LEWISTOWN      MOCLDY    25  18  74 SW14      30.10R WCI  13
N BAR RANCH    FAIR      28  12  50 W12G20    30.09R WCI  18
CHINOOK          N/A     25  18  74 W8        30.09R WCI  16
GEYSER         FAIR      28  17  63 W20       30.10R WCI  15
GRASS RANGE    MOCLDY    28  17  64 W14       30.07R WCI  17
WINIFRED       FAIR      27  19  71 SW7       30.09R WCI  19
$$

MTZ017>020-022>027-061-062-231300-
NORTHEAST MONTANA

CITY           SKY/WX    TMP DP  RH WIND       PRES   REMARKS
GLASGOW        FAIR      15  11  83 W5        30.07R
GLENDIVE       FAIR      25  18  74 NW10      30.06R WCI  15
JORDAN           N/A     16  11  80 W7        30.08R WCI   6
MALTA          CLEAR     10   9  92 W10       30.09R WCI  -3
SIDNEY         FAIR      22  18  85 S5        30.05R
WOLF POINT     FAIR      11   5  77 S3        30.08R
PLENTYWOOD       N/A     19  14  79 CALM      30.02R
POPLAR           N/A      9   7  92 W5        30.07R
SCOBEY           N/A      9   2  73 CALM      30.01R
$$

MTZ028>42-056>058-231300-
SOUTHCENTRAL AND SOUTHEAST MONTANA

CITY           SKY/WX    TMP DP  RH WIND       PRES   REMARKS
BAKER          FAIR      24  20  84 W14       30.05R WCI  12
BILLINGS       FAIR      27  16  63 SW14      30.14R WCI  16
LIVINGSTON     MOCLDY    27  17  66 W17       30.16R WCI  14
MILES CITY     FAIR      16  14  92 W10       30.10R WCI   4
BIG TIMBER     CLOUDY    27  18  69 W12       30.19R WCI  16
FORSYTH          N/A     25  19  80 SW8       30.12R WCI  16
LAUREL           N/A     23  16  74 SW14      30.16S WCI  11
$$

REGIONAL REPORTS...DAKOTAS

CITY           SKY/WX    TMP DP  RH WIND       PRES   REMARKS
WILLISTON      FAIR      19  15  84 S6        30.04R WCI  11
MINOT          FAIR      16  13  88 SW8       29.97R WCI   5
DICKINSON      FAIR      22  17  81 W13       29.98R WCI  10
BEACH          FAIR      25  21  86 W16       30.05S WCI  12
CROSBY         FAIR      12  10  92 W7        30.02R WCI   2
TIOGA          FAIR      14  14 100 W5        30.01R
WATFORD CITY   FAIR      23  18  80 CALM      30.03R
BISMARCK       FOG       15  12  88 CALM      30.03R VSB 1/4
GRAND FORKS    CLOUDY    21  17  84 CALM      30.07R
FARGO          CLOUDY    21  16  81 NE7       30.06F WCI  12
BUFFALO SD       N/A     30  22  72 W16       29.98R WCI  19
RAPID CITY     CLOUDY    30  24  78 CALM      30.07S
$$

REGIONAL REPORTS...WYOMING/IDAHO/WASHINGTON

CITY           SKY/WX    TMP DP  RH WIND       PRES   REMARKS
GILLETTE       CLOUDY    23  17  78 W12       30.10R WCI  12
SHERIDAN       FAIR      21  12  68 SW3       30.13R
BUFFALO WY     FAIR      23   9  55 W7        30.11R WCI  15
CODY           FAIR      27   9  46 CALM      30.16R
YELLOWSTONE LA   N/A     -8 -12  83 CALM      30.18S
IDAHO FALLS    CLOUDY    26  24  92 W8        30.30R WCI  18
SALMON         CLOUDY    18  15  88 CALM      30.33
BOISE          FAIR      30  25  81 SE10      30.30F WCI  21
SPOKANE        FAIR      29  28  96 SE3       30.23F
$$

REGIONAL REPORTS...ALBERTA

CITY           SKY/WX    TMP DP  RH WIND       PRES   REMARKS
CALGARY        PTCLDY    19   9  63 S3        30.01R
CARDSTON         N/A     25  14  63 W7          N/A  WCI  17
EDMONTON       PTCLDY    18  12  79 W6        30.00R WCI   9
FORT MCMURRAY  CLOUDY    10   9  92 E3        30.03R
HIGH LEVEL     CLOUDY     7   3  85 CALM      30.02S
LETHBRIDGE     CLEAR     30  18  59 W17       30.06R WCI  18
LLOYDMINSTER   FOG       16  16 100 W7        29.98S VSB 1/4 WCI   6
MEDICINE HAT   CLEAR     23  18  80 S8        30.06R WCI  14
MILK RIVER       N/A     19  14  79 NW12        N/A  WCI   7
ONEFOUR          N/A     18  12  79 NW16        N/A  WCI   3
PEACE RIVER    FOG       16  12  86 SW3       29.94F VSB 1/4
PINCHER CREEK  CLOUDY    28  18  64 W14       30.06S WCI  17
WATERTON GATE    N/A     30  10  43 SW17G28     N/A  WCI  18
$$

REGIONAL REPORTS...SASKATCHEWAN

CITY           SKY/WX    TMP DP  RH WIND       PRES   REMARKS
CORONACH         N/A     12   9  85 NW6         N/A  WCI   3
CYPRESS HILLS    N/A     27  10  50 NW8         N/A  WCI  18
ESTEVAN        CLOUDY    14  12  92 NW17G24   30.00R WCI  -3
MOOSE JAW        N/A     18  16  93 W7          N/A  WCI   8
PRINCE ALBERT  LGT SNOW  14  10  85 W3        29.99R FOG
REGINA         CLOUDY    18  16  93 NW14      30.02R WCI   4
ROCKGLEN         N/A     16  12  86 W5          N/A
SASKATOON      CLOUDY    23  19  86 W9        30.02R WCI  13
SWIFT CURRENT  CLEAR     19  16  86 W12       30.00R WCI   7
VAL MARIE        N/A     14  10  85 W10         N/A  WCI   1
$$



USA.gov is the U.S. government's official web portal to all federal, state and local government web resources and services.